Regional Weather Roundup
Issued by NWS

Home | Current Version | Previous Version | Text Only | Print | Product List | Glossary Off
Versions: 1 2 3 4 5 6 7 8 9 10 11 12 13 14 15 16 17 18 19 20 21 22 23 24 25 26 27 28 29 30 31 32 33 34 35 36 37 38 39 40 41 42 43 44 45 46 47 48 49 50

575
ASUS43 KFSD 212302
RWRSD

WEATHER ROUNDUP FOR SOUTH DAKOTA
NATIONAL WEATHER SERVICE SIOUX FALLS SD
500 PM CST SUN JAN 21 2018

NOTE: "FAIR" INDICATES FEW OR NO CLOUDS BELOW 12,000 FEET WITH NO
SIGNIFICANT WEATHER AND/OR OBSTRUCTIONS TO VISIBILITY.


SDZ001>005-009-010-012>017-220000-
NORTHWEST AND NORTH CENTRAL SOUTH DAKOTA

CITY           SKY/WX    TMP DP  RH WIND       PRES   REMARKS
BUFFALO          N/A     31  22  69 NW15      29.92R WCI  20
FAITH            N/A     32  26  78 N7        29.98R WCI  26
MOBRIDGE       CLOUDY    32  25  75 NE6       29.98R WCI  26
$$

SDZ012>016-024>037-041>051-057-063-072>074-220000-
SOUTHWEST AND SOUTH CENTRAL SOUTH DAKOTA

CITY           SKY/WX    TMP DP  RH WIND       PRES   REMARKS
RAPID CTY ARPT CLOUDY    34  22  61 N10       29.97R WCI  26
PIERRE         CLOUDY    33  27  78 N6        29.98R WCI  28
CUSTER         CLOUDY    25  16  68 N9        29.91R WCI  15
ELLSWORTH AFB  CLOUDY    34  23  63 N14       29.97R WCI  25
PHILIP         CLOUDY    33  30  88 N6        29.99R WCI  28
PINE RIDGE     LGT SNOW  28  26  92 NW9       29.96R FOG     WCI  19
SPEARFISH        N/A     32  21  64 NW8       29.99R WCI  25
WINNER         LGT SNOW  33  31  92 N14       29.94R FOG     WCI  23
$$

SDZ004>011-016>023-039-040-220000-
NORTHEAST SOUTH DAKOTA

CITY           SKY/WX    TMP DP  RH WIND       PRES   REMARKS
ABERDEEN       CLOUDY    31  26  82 NE10      30.02R WCI  22
WATERTOWN      CLOUDY    33  29  85 N10       29.94S WCI  25
BROOKINGS      CLOUDY    36  31  82 NE13G20   29.91R
SISSETON         N/A     30  26  85 N10       30.01S WCI  21
$$

SDZ017-020-022-023-036>040-048>070-220000-
SOUTHEAST SOUTH DAKOTA

CITY           SKY/WX    TMP DP  RH WIND       PRES   REMARKS
SIOUX FALLS    CLOUDY    36  32  85 NE17G29   29.88R
HURON          CLOUDY    32  29  88 N13       29.96R WCI  22
CHAMBERLAIN    MIX PCPN  34  34 100 N12       29.95R WCI  25
MITCHELL       CLOUDY    35  33  92 N18       29.94R WCI  24
YANKTON        MOCLDY    38  28  67 N21G29    29.83
$$

ABBREVIATIONS USED IN REMARKS
   TC - TEMPERATURE IN CELSIUS
  WCI - WIND CHILL INDEX
   HX - HEAT INDEX
  VSB - VISIBILITY





USA.gov is the U.S. government's official web portal to all federal, state and local government web resources and services.